Regional Weather Roundup
Issued by NWS Sioux Falls, SD

Home | Current Version | Previous Version | Text Only | Print | Product List | Glossary On
Versions: 1 2 3 4 5 6 7 8 9 10 11 12 13 14 15 16 17 18 19 20 21 22 23 24 25 26 27 28 29 30 31 32 33 34 35 36 37 38 39 40 41 42 43 44 45 46 47 48 49 50
000
ASUS43 KFSD 212110
RWRFSD

WEATHER ROUNDUP FOR SE SOUTH DAKOTA/SW MINNESOTA/NW IOWA
NATIONAL WEATHER SERVICE SIOUX FALLS SD
300 PM CST SUN DEC 21 2014

NOTE: "FAIR" INDICATES FEW OR NO CLOUDS BELOW 12,000 FEET WITH NO
SIGNIFICANT WEATHER AND OR OBSTRUCTIONS TO VISIBILITY.


SDZ038>040-050-052>070-212200-
SOUTHEAST SOUTH DAKOTA

CITY           SKY/WX    TMP DP  RH WIND       PRES   REMARKS
CHAMBERLAIN    SUNNY     36  30  79 SE8       29.45F
HURON          MOSUNNY   35  31  85 SE12      29.50F WCI  27
MADISON        LGT RAIN  32  32 100 S17G23    29.55F VSB 3/4 WCI  21
MITCHELL       SUNNY     38  32  79 S20       29.52F
SIOUX FALLS    CLOUDY    37  35  92 S16       29.60F FOG
WINNER         FAIR      43  29  57 S18       29.42F
YANKTON        CLOUDY    39  34  81 S18       29.60F
$$

MNZ071-072-080-081-089-090-097-098-212200-
SOUTHWEST MINNESOTA

CITY           SKY/WX    TMP DP  RH WIND       PRES   REMARKS
FAIRMONT       CLOUDY    37  34  87 S18       29.69F
JACKSON        CLOUDY    36  36 100 S15       29.69R FOG
LUVERNE        CLOUDY    37  36  93 S9        29.63F FOG
MARSHALL       CLOUDY    36  30  80 S15       29.63S
MONTEVIDEO     CLOUDY    36  36 100 S10       29.64F FOG
PIPESTONE      SNOW      36  34  93 S17       29.60F VSB<1/4
REDWOOD FALLS  CLOUDY    35  34  96 SE10      29.67F FOG     WCI  27
TRACY          CLOUDY    37  36  94 S10G23    29.63F FOG
WINDOM         CLOUDY    37  37 100 S9        29.66S FOG
WORTHINGTON    CLOUDY    37 -11  12 S16G23    29.65F
$$

IAZ001>003-012>014-020>022-031-032-NEZ013-014-SDZ071-212200-
NORTHWEST IOWA

CITY           SKY/WX    TMP DP  RH WIND       PRES   REMARKS
CHEROKEE       CLOUDY    39  38  99 S16G23    29.70S FOG
DENISON        CLOUDY    39  39 100 S21G26    29.71F FOG
ESTHERVILLE    CLOUDY    37  36  96 S20       29.69S FOG
LE MARS        CLOUDY    41  39  93 S22       29.66F FOG
ORANGE CITY    CLOUDY    39  37  93 S17G25    29.65F FOG
SHELDON        CLOUDY    39  39 100 S18G24    29.64F FOG
SIOUX CITY     CLOUDY    42  38  85 S20G25    29.69F
SPENCER        CLOUDY    38  36  92 S13       29.70R FOG
STORM LAKE     CLOUDY    37  37 100 S15G24    29.71R FOG
$$

ABBREVIATIONS USED IN REMARKS
   TC - TEMPERATURE IN CELSIUS
  WCI - WIND CHILL INDEX
   HX - HEAT INDEX
  VSB - VISIBILITY



USA.gov is the U.S. government's official web portal to all federal, state and local government web resources and services.